| time (UTC) | temp C | wind direction | speed KPH | gust KPH | rain 1hr cm | rain 24hr cm | rain mn cm | humidity % | barometer mb |
| 20260507060010 | 5 | 63 | 0.0 | 0.0 | 0.00 | 2.39 | 0.00 | 96 | 1009.8 |
| 20260507054520 | 5 | 63 | 0.0 | 0.0 | 0.00 | 2.39 | 0.00 | 97 | 1009.9 |
| 20260507053022 | 5 | 63 | 0.0 | 1.6 | 0.00 | 2.41 | 0.00 | 96 | 1010.0 |
| 20260507051524 | 5 | 63 | 0.0 | 0.0 | 0.00 | 2.41 | 0.00 | 97 | 1009.9 |
| 20260507050029 | 5 | 63 | 0.0 | 1.6 | 0.00 | 2.41 | 0.00 | 97 | 1010.0 |
| 20260507044512 | 5 | 63 | 0.0 | 4.8 | 0.00 | 2.46 | 0.00 | 97 | 1010.0 |
| 20260507043022 | 5 | 63 | 0.0 | 4.8 | 0.00 | 2.46 | 0.00 | 97 | 1009.9 |
| 20260507041522 | 6 | 63 | 0.0 | 0.0 | 0.03 | 2.46 | 0.00 | 97 | 1010.1 |
| 20260507040026 | 5 | 63 | 0.0 | 0.0 | 0.03 | 2.46 | 0.00 | 97 | 1009.8 |
| 20260507034527 | 6 | 63 | 0.0 | 0.0 | 0.05 | 2.46 | 2.46 | 97 | 1010.2 |
| 20260507033006 | 6 | 63 | 0.0 | 3.2 | 0.08 | 2.46 | 2.46 | 96 | 1010.3 |
| 20260507031506 | 6 | 63 | 0.0 | 1.6 | 0.08 | 2.44 | 2.44 | 96 | 1010.3 |
| 20260507030009 | 6 | 1 | 0.0 | 9.7 | 0.10 | 2.44 | 2.44 | 96 | 1010.5 |
| 20260507024510 | 6 | 55 | 0.0 | 1.6 | 0.13 | 2.41 | 2.41 | 96 | 1010.7 |
| 20260507023007 | 6 | 55 | 0.0 | 8.0 | 0.13 | 2.39 | 2.39 | 96 | 1010.7 |
| 20260507021510 | 6 | 84 | 0.0 | 3.2 | 0.13 | 2.36 | 2.36 | 96 | 1010.7 |
| 20260507020010 | 6 | 84 | 0.0 | 0.0 | 0.13 | 2.34 | 2.34 | 97 | 1010.4 |
| 20260507014517 | 6 | 84 | 0.0 | 0.0 | 0.13 | 2.29 | 2.29 | 97 | 1010.3 |
| 20260507013017 | 6 | 53 | 0.0 | 4.8 | 0.15 | 2.26 | 2.26 | 97 | 1010.0 |
| 20260507011514 | 7 | 53 | 0.0 | 3.2 | 0.18 | 2.24 | 2.24 | 97 | 1010.2 |
| 20260507010013 | 7 | 53 | 0.0 | 0.0 | 0.15 | 2.21 | 2.21 | 97 | 1009.8 |
| 20260507004510 | 7 | 53 | 0.0 | 3.2 | 0.10 | 2.16 | 2.16 | 97 | 1009.8 |
| 20260507003013 | 7 | 53 | 0.0 | 0.0 | 0.08 | 2.11 | 2.11 | 97 | 1009.4 |
| 20260507001510 | 7 | 53 | 0.0 | 0.0 | 0.08 | 2.06 | 2.06 | 97 | 1009.5 |
| 20260507000013 | 7 | 53 | 0.0 | 0.0 | 0.10 | 2.06 | 2.06 | 97 | 1009.3 |
| 20260506234516 | 7 | 53 | 0.0 | 0.0 | 0.10 | 2.06 | 2.06 | 97 | 1009.3 |
| 20260506233012 | 7 | 53 | 0.0 | 0.0 | 0.08 | 2.03 | 2.03 | 97 | 1009.3 |
| 20260506231512 | 7 | 53 | 0.0 | 0.0 | 0.05 | 1.98 | 1.98 | 96 | 1009.1 |
| 20260506230014 | 8 | 53 | 0.0 | 0.0 | 0.05 | 1.96 | 1.96 | 96 | 1009.1 |
| 20260506224515 | 8 | 53 | 0.0 | 0.0 | 0.18 | 1.96 | 1.96 | 96 | 1008.9 |
| 20260506223014 | 8 | 53 | 0.0 | 3.2 | 0.36 | 1.96 | 1.96 | 96 | 1008.8 |
| 20260506221514 | 8 | 53 | 0.0 | 3.2 | 0.36 | 1.93 | 1.93 | 95 | 1008.8 |
| 20260506220015 | 8 | 49 | 0.0 | 6.4 | 0.41 | 1.93 | 1.91 | 94 | 1008.7 |
| 20260506214529 | 8 | 359 | 1.6 | 11.3 | 0.30 | 1.85 | 1.78 | 93 | 1008.2 |
| 20260506213019 | 8 | 260 | 1.6 | 8.0 | 0.18 | 1.80 | 1.60 | 93 | 1008.0 |
| 20260506211516 | 9 | 80 | 0.0 | 8.0 | 0.15 | 1.83 | 1.57 | 92 | 1007.8 |
| 20260506210019 | 10 | 81 | 0.0 | 11.3 | 0.08 | 1.78 | 1.47 | 93 | 1007.6 |
| 20260506204516 | 11 | 290 | 0.0 | 9.7 | 0.08 | 1.88 | 1.47 | 93 | 1007.4 |
| 20260506203019 | 11 | 139 | 0.0 | 1.6 | 0.03 | 1.91 | 1.42 | 96 | 1007.3 |
| 20260506201516 | 11 | 139 | 0.0 | 1.6 | 0.05 | 1.91 | 1.42 | 95 | 1007.4 |
| 20260506200016 | 12 | 139 | 0.0 | 1.6 | 0.08 | 1.91 | 1.42 | 97 | 1007.5 |
| 20260506194518 | 11 | 139 | 0.0 | 3.2 | 0.10 | 1.88 | 1.40 | 97 | 1007.7 |
| 20260506193014 | 11 | 139 | 0.0 | 0.0 | 0.15 | 1.88 | 1.40 | 96 | 1007.8 |
| 20260506191518 | 12 | 139 | 0.0 | 0.0 | 0.23 | 1.85 | 1.37 | 97 | 1007.9 |
| 20260506190018 | 12 | 139 | 0.0 | 0.0 | 0.28 | 1.83 | 1.32 | 96 | 1008.0 |
| 20260506184539 | 12 | 139 | 0.0 | 6.4 | 0.30 | 1.78 | 1.30 | 96 | 1008.0 |
| 20260506183028 | 12 | 134 | 0.0 | 9.7 | 0.33 | 1.73 | 1.24 | 97 | 1008.2 |
| 20260506181517 | 13 | 350 | 0.0 | 0.0 | 0.28 | 1.63 | 1.14 | 98 | 1008.3 |
| 20260506180025 | 13 | 350 | 0.0 | 0.0 | 0.23 | 1.55 | 1.07 | 98 | 1008.7 |
| 20260506174503 | 13 | 350 | 0.0 | 1.6 | 0.20 | 1.47 | 0.99 | 97 | 1008.8 |
| 20260506173009 | 13 | 350 | 0.0 | 0.0 | 0.15 | 1.40 | 0.91 | 97 | 1008.9 |
| 20260506171514 | 12 | 350 | 0.0 | 0.0 | 0.13 | 1.32 | 0.86 | 97 | 1008.9 |
| 20260506170020 | 12 | 350 | 0.0 | 0.0 | 0.13 | 1.32 | 0.84 | 97 | 1008.9 |
| 20260506164508 | 12 | 350 | 0.0 | 0.0 | 0.10 | 1.27 | 0.79 | 97 | 1009.0 |
| 20260506163008 | 12 | 350 | 0.0 | 0.0 | 0.13 | 1.24 | 0.76 | 97 | 1009.1 |
| 20260506161513 | 12 | 350 | 0.0 | 0.0 | 0.13 | 1.22 | 0.74 | 97 | 1009.5 |
| 20260506160017 | 12 | 350 | 0.0 | 0.0 | 0.15 | 1.19 | 0.71 | 97 | 1009.9 |
| 20260506154522 | 12 | 350 | 0.0 | 0.0 | 0.15 | 1.17 | 0.69 | 98 | 1010.2 |
| 20260506153015 | 11 | 350 | 0.0 | 0.0 | 0.13 | 1.12 | 0.64 | 98 | 1010.3 |
| 20260506151508 | 11 | 350 | 0.0 | 3.2 | 0.10 | 1.09 | 0.61 | 98 | 1010.6 |
| 20260506150013 | 12 | 350 | 0.0 | 0.0 | 0.05 | 1.04 | 0.56 | 98 | 1010.5 |
| 20260506144521 | 11 | 350 | 0.0 | 0.0 | 0.05 | 1.02 | 0.53 | 98 | 1010.8 |
| 20260506143023 | 12 | 350 | 0.0 | 0.0 | 0.03 | 0.99 | 0.51 | 98 | 1010.6 |
| 20260506141504 | 11 | 350 | 0.0 | 1.6 | 0.05 | 0.99 | 0.51 | 98 | 1010.5 |
| 20260506140009 | 11 | 350 | 0.0 | 1.6 | 0.08 | 0.99 | 0.51 | 98 | 1010.5 |
| 20260506134514 | 11 | 350 | 0.0 | 0.0 | 0.05 | 0.97 | 0.48 | 98 | 1010.4 |
| 20260506133021 | 11 | 350 | 0.0 | 1.6 | 0.05 | 0.97 | 0.48 | 98 | 1010.7 |
| 20260506131533 | 11 | 350 | 0.0 | 0.0 | 0.03 | 0.94 | 0.46 | 99 | 1011.0 |
| 20260506130009 | 11 | 350 | 0.0 | 0.0 | 0.00 | 0.91 | 0.43 | 98 | 1010.8 |
| 20260506124513 | 11 | 350 | 0.0 | 0.0 | 0.00 | 0.91 | 0.43 | 98 | 1010.9 |
| 20260506123018 | 11 | 350 | 0.0 | 0.0 | 0.00 | 0.91 | 0.43 | 98 | 1011.1 |
| 20260506121520 | 11 | 350 | 0.0 | 0.0 | 0.00 | 0.91 | 0.43 | 98 | 1011.0 |
| 20260506120024 | 11 | 350 | 0.0 | 0.0 | 0.00 | 0.91 | 0.43 | 98 | 1011.1 |
| 20260506114518 | 11 | 350 | 0.0 | 0.0 | 0.00 | 0.91 | 0.43 | 99 | 1011.0 |
| 20260506113031 | 11 | 350 | 0.0 | 0.0 | 0.00 | 0.91 | 0.43 | 99 | 1011.1 |
| 20260506111520 | 11 | 350 | 0.0 | 1.6 | 0.00 | 0.91 | 0.43 | 98 | 1011.3 |
| 20260506110024 | 10 | 350 | 0.0 | 0.0 | 0.00 | 0.91 | 0.43 | 98 | 1011.5 |
| 20260506104530 | 10 | 350 | 0.0 | 1.6 | 0.00 | 0.91 | 0.43 | 98 | 1011.3 |
| 20260506103014 | 10 | 350 | 0.0 | 0.0 | 0.00 | 0.91 | 0.43 | 98 | 1011.4 |
| 20260506101516 | 10 | 350 | 0.0 | 0.0 | 0.00 | 0.91 | 0.43 | 98 | 1011.1 |
| 20260506100020 | 10 | 350 | 0.0 | 0.0 | 0.00 | 0.91 | 0.43 | 98 | 1011.4 |
| 20260506094522 | 10 | 350 | 0.0 | 0.0 | 0.00 | 0.91 | 0.43 | 98 | 1011.4 |
| 20260506093029 | 10 | 350 | 0.0 | 0.0 | 0.00 | 0.91 | 0.43 | 98 | 1011.7 |
| 20260506091512 | 10 | 350 | 0.0 | 1.6 | 0.00 | 0.91 | 0.43 | 98 | 1011.7 |
| 20260506090023 | 10 | 350 | 0.0 | 0.0 | 0.00 | 0.91 | 0.43 | 98 | 1011.8 |
| 20260506084523 | 10 | 350 | 0.0 | 0.0 | 0.03 | 0.91 | 0.43 | 98 | 1011.9 |
| 20260506083006 | 10 | 350 | 0.0 | 1.6 | 0.05 | 0.91 | 0.43 | 98 | 1011.6 |
| 20260506081512 | 10 | 350 | 0.0 | 0.0 | 0.05 | 0.91 | 0.43 | 98 | 1011.6 |
| 20260506073026 | 11 | 350 | 0.0 | 0.0 | 0.10 | 0.86 | 0.38 | 97 | 1012.2 |
| 20260506071511 | 11 | 350 | 0.0 | 0.0 | 0.15 | 0.86 | 0.38 | 96 | 1012.0 |